Location: Unspecified
(0.0000°N, 0.0000°E)
Time: 07:36:08
(UTC+00:00)

Falcon 9 debris - Visible Passes

Search period start: 18 September 2021 00:00
Search period end: 28 September 2021 00:00
Orbit: 417 x 424 km, 53.0° (Epoch: 18 September)

Date Brightness Start Highest point End Pass type
(mag) Time Alt. Az. Time Alt. Az. Time Alt. Az.
19 Sep ? 05:00:23 10° S 05:03:07 22° SE 05:05:49 10° ENE visible
19 Sep ? 18:13:50 10° W 18:15:59 16° SW 18:18:09 10° SSW visible
20 Sep ? 04:15:24 10° SE 04:16:00 10° SE 04:16:36 10° ESE visible
21 Sep ? 05:02:33 13° SW 05:05:24 58° NW 05:08:42 10° NNE visible
22 Sep ? 04:18:45 48° E 04:18:45 48° E 04:21:35 10° NE visible
23 Sep ? 05:07:54 11° NW 05:07:54 11° NW 05:08:45 10° NW visible
